Regional Weather Roundup
Issued by NWS

Home | Current Version | Previous Version | Text Only | Print | Product List | Glossary Off
Versions: 1 2 3 4 5 6 7 8 9 10 11 12 13 14 15 16 17 18 19 20 21 22 23 24 25 26 27 28 29 30 31 32 33 34 35 36 37 38 39 40 41 42 43 44 45 46 47 48 49 50

000
ASUS43 KDTX 081610
RWRMI
MICHIGAN HOURLY REGIONAL WEATHER ROUNDUP
NATIONAL WEATHER SERVICE DETROIT/PONTIAC MI
ISSUED BY NATIONAL WEATHER SERVICE GRAND RAPIDS MI
1100 AM EST THU DEC 08 2016

NOTE: "FAIR" INDICATES FEW OR NO CLOUDS BELOW 12,000 FEET WITH NO
SIGNIFICANT WEATHER AND/OR OBSTRUCTION TO VISIBILITY.

MIZ047>049-052>055-059>063-066>070-074>076-081>083-081700-
SOUTHEAST LOWER MICHIGAN

CITY           SKY/WX    TMP DP  RH WIND       PRES   REMARKS
ADRIAN         FLURRIES  25  18  74 W14G23    30.13R WCI  13
ALMA           CLOUDY    27  18  67 W16G25    30.06R WCI  15
ANN ARBOR      LGT SNOW  25  23  92 SW15      30.09R FOG     WCI  13
BAD AXE        LGT SNOW  25  19  78 W14G24    29.99R WCI  14
DETROIT CITY   FLURRIES  28  20  71 W12G22    30.08R WCI  18
DETROIT        LGT SNOW  29  19  66 SW16      30.10R WCI  17
FLINT          LGT SNOW  26  20  77 W16       30.06R WCI  14
GROSSE ILE     LGT SNOW  27  22  83 W13       30.10R WCI  16
HILLSDALE      FLURRIES  23  18  80 SW15G24   30.10R WCI  10
HOWELL         LGT SNOW  26  21  82 W15       30.06R WCI  14

CITY           SKY/WX    TMP DP  RH WIND       PRES   REMARKS
JACKSON        LGT SNOW  24  20  84 W16       30.09R VSB 1   WCI  11
LANSING        LGT SNOW  26  20  77 W12       30.09R VSB 1   WCI  16
MASON          LGT SNOW  26  21  83 W6        30.08R WCI  19
MONROE         CLOUDY    27  21  77 W17G23    30.11R WCI  14
MT. CLEMENS    LGT SNOW  27  23  86 W12       30.04R WCI  16
PONTIAC        CLOUDY    26  21  81 W10G21    30.04R WCI  16
PORT HOPE        N/A     27  19  72 W13G23    29.96R WCI  16
PORT HURON     CLOUDY    28  18  64 W6G21     30.04S WCI  22
TRI CITIES     CLOUDY    27  20  75 W18       30.04R WCI  14
YPSILANTI      LGT SNOW  27  22  81 SW18      30.10R WCI  14
$$
MIZ043>046-050>051-056>058-064>065-071>073-077>080-081700-
SOUTHWEST LOWER MICHIGAN

CITY           SKY/WX    TMP DP  RH WIND       PRES   REMARKS
BATTLE CREEK   LGT SNOW  25  20  81 W22G30    30.12R WCI  10
BENTON HARBOR  CLOUDY    24  16  71 W24G30    30.20R WCI   8
BIG RAPIDS     LGT SNOW  25  19  78 W10       30.03R WCI  15
COLDWATER      FLURRIES  24  18  78 SW15      30.13R WCI  11
HOLLAND        FLURRIES  26  18  71 W16G29    30.13R WCI  14
GRAND RAPIDS   LGT SNOW  25  19  78 W15       30.10R WCI  13
KALAMAZOO      LGT SNOW  25  18  74 W15       30.14R VSB 3/4 WCI  13
MARSHALL       LGT SNOW  26  21  83 W15G24    30.10R WCI  13
MOUNT PLEASANT FLURRIES  25  19  76 W12       30.03R WCI  14
MUSKEGON       FLURRIES  26  17  68 NW16G29   30.12R WCI  14
STURGIS        LGT SNOW  22  17  81 W18G24    30.16R WCI   7
$$
MIZ016>042-081700-
NORTHERN LOWER MICHIGAN

CITY           SKY/WX    TMP DP  RH WIND       PRES   REMARKS
ALPENA         LGT SNOW  28  19  69 W14G23    29.89R WCI  17
BEAVER ISLAND  CLOUDY    30  26  85 NW8G16    29.93R WCI  23
BELLAIRE       LGT SNOW  28  26  91 SW8       29.95R WCI  20
CADILLAC       LGT SNOW  24  19  83 W10G16    29.96R WCI  13
CHARLEVOIX     LGT SNOW  32  27  83 NW18G24   29.94R WCI  20
GAYLORD        SNOW      25  21  85 W15       29.88S VSB 1/2 WCI  13
HOUGHTON LAKE  CLOUDY    24  18  77 W14G23    29.96R WCI  12
MANISTEE       FLURRIES  26  22  84 W18G26    30.04R WCI  13
OSCODA         PTSUNNY   30  18  61 MISG      29.93R
PELLSTON       LGT SNOW  29  23  78 W14       29.90R WCI  18
TRAVERSE CITY  LGT SNOW  28  23  81 W12       29.98R WCI  18
LUDINGTON      LGT SNOW  27  21  80 W15G23    30.07R WCI  15
$$
MIZ007>008-015-081700-
EASTERN UPPER MICHIGAN

CITY           SKY/WX    TMP DP  RH WIND       PRES   REMARKS
KINROSS        FLURRIES  28  23  81 W8        29.86R WCI  20
MACKINAC ISLAN CLOUDY    28  23  82 W15G22    29.88R WCI  16
NEWBERRY       LGT SNOW  26  24  93 W9        29.90R WCI  16
S. S. MARIE    MOSUNNY   28  19  69 N9G18     29.85R WCI  19
$$
MIZ004>006-011>014-085-081700-
CENTRAL UPPER MICHIGAN

CITY           SKY/WX    TMP DP  RH WIND       PRES   REMARKS
MANISTIQUE     PTSUNNY   28  24  88 NW10      29.94R WCI  18
ESCANABA       SUNNY     28  20  71 NW10      30.00R WCI  19
MENOMINEE      PTSUNNY   26  17  68 NW9       30.06R WCI  17
SAWYER-GWINN   LGT SNOW  25  23  93 N10G20    29.97R WCI  15
$$
MIZ001>003-009>011-084-081700-
WESTERN UPPER MICHIGAN

CITY           SKY/WX    TMP DP  RH WIND       PRES   REMARKS
IRON MOUNTAIN  MOSUNNY   27  18  69 NW13      30.01R WCI  16
HOUGHTON       LGT SNOW  27  19  72 N15       30.03R WCI  15
COPPER HARBOR    N/A     31  24  75 NE24      30.02  WCI  17
IRONWOOD       LGT SNOW  27  21  80 NW10G18   30.12R FOG     WCI  17
$$

ABBREVIATIONS USED IN REMARKS
   TC - TEMPERATURE IN CELSIUS
  WCI - WIND CHILL INDEX
   HX - HEAT INDEX
  VSB - VISIBILITY





USA.gov is the U.S. government's official web portal to all federal, state and local government web resources and services.